User: anonymous
Location: Newark
(40.7360°N, 74.1730°W)
Time: 06:13:05
(UTC-04:00)
Language:

ISS - Orbit

View from above orbital plane
View from above orbital plane
View from above satellite
View from above satellite

Ground track
Ground track

The orbit data is extracted from the following two-line orbital elements,

1 25544U 98067A   14264.86032590  .00018610  00000-0  32695-3 0  1277
2 25544 051.6472 340.4289 0002276 120.7164 348.9324 15.50546209906325
Epoch (UTC): 21 September 2014 20:38:52
Eccentricity: 0.0002276
inclination: 51.6472°
perigee height: 413 km
apogee height: 416 km
right ascension of ascending node: 340.4289°
argument of perigee: 120.7164°
revolutions per day: 15.50546209
mean anomaly at epoch: 348.9324°
orbit number at epoch: 90632

The dashed part of the orbit path shows where the satellite is in the earth's shadow,  

DLR